User: anonymous   Login
Location: Tauranga
(37.6860°S, 176.1670°E)
Time: 05:39:06
(UTC+13:00)
Language:

HJ-1C - Orbit

View from above orbital plane
View from above orbital plane
View from above satellite
View from above satellite

Ground track
Ground track

The orbit data is extracted from the following two-line orbital elements,

1 38997U 12064A   19077.81505729  .00002122  00000-0  53952-4 0  9995
2 38997  97.2003 110.6591 0008781 217.7060 228.1731 15.40697416355447
Epoch (UTC): 18 March 2019 19:33:40
Eccentricity: 0.0008781
inclination: 97.2003°
perigee height: 438 km
apogee height: 450 km
right ascension of ascending node: 110.6591°
argument of perigee: 217.7060°
revolutions per day: 15.40697416
mean anomaly at epoch: 228.1731°
orbit number at epoch: 35544

The dashed part of the orbit path shows where the satellite is in the earth's shadow,  

DLR